TimeEST,TemperatureF,Dew PointF,Humidity,Sea Level PressureIn,VisibilityMPH,Wind Direction,Wind SpeedMPH,Gust SpeedMPH,PrecipitationIn,Events,Conditions,WindDirDegrees,DateUTC
12:51 AM,21.0,12.0,68,29.93,5.0,NNW,3.5,-,0.00,Snow,Light Snow,330,2013-02-06 05:51:00
1:51 AM,19.9,14.0,78,29.94,5.0,NW,4.6,-,0.00,Snow,Light Snow,310,2013-02-06 06:51:00
2:27 AM,19.4,15.8,86,29.92,2.5,Calm,Calm,-,0.00,Snow,Light Snow,0,2013-02-06 07:27:00
2:36 AM,19.4,15.8,86,29.92,1.5,Calm,Calm,-,0.00,Snow,Light Snow,0,2013-02-06 07:36:00
2:51 AM,19.9,16.0,85,29.93,1.5,Calm,Calm,-,0.00,Snow,Light Snow,0,2013-02-06 07:51:00
3:03 AM,19.4,15.8,86,29.92,2.5,Calm,Calm,-,0.00,Snow,Light Snow,0,2013-02-06 08:03:00
3:09 AM,19.4,15.8,86,29.92,3.0,Calm,Calm,-,0.00,Snow,Light Snow,0,2013-02-06 08:09:00
3:51 AM,19.9,16.0,85,29.92,9.0,North,3.5,-,0.00,,Overcast,360,2013-02-06 08:51:00
3:58 AM,19.4,15.8,86,29.92,8.0,North,4.6,-,0.00,Snow,Light Snow,360,2013-02-06 08:58:00
4:21 AM,19.4,15.8,86,29.92,7.0,North,4.6,-,0.00,Snow,Light Snow,360,2013-02-06 09:21:00
4:51 AM,19.9,16.0,85,29.93,7.0,North,3.5,-,0.00,Snow,Light Snow,360,2013-02-06 09:51:00
5:51 AM,19.9,17.1,89,29.94,10.0,Calm,Calm,-,0.00,,Overcast,0,2013-02-06 10:51:00
6:51 AM,19.9,17.1,89,29.96,10.0,NW,5.8,-,N/A,,Overcast,320,2013-02-06 11:51:00
7:51 AM,21.0,17.1,85,29.97,10.0,NW,4.6,-,N/A,,Overcast,320,2013-02-06 12:51:00
8:14 AM,21.2,17.6,86,29.96,10.0,Calm,Calm,-,N/A,,Overcast,0,2013-02-06 13:14:00
8:22 AM,21.2,17.6,86,29.96,10.0,Calm,Calm,-,N/A,,Overcast,0,2013-02-06 13:22:00
8:51 AM,23.0,18.0,81,29.97,10.0,Calm,Calm,-,N/A,,Overcast,0,2013-02-06 13:51:00
9:51 AM,26.1,19.9,78,29.96,10.0,Calm,Calm,-,N/A,,Overcast,0,2013-02-06 14:51:00
10:51 AM,28.9,21.9,75,29.96,10.0,Calm,Calm,-,N/A,,Clear,0,2013-02-06 15:51:00
11:51 AM,34.0,18.0,52,29.94,10.0,WSW,9.2,-,N/A,,Clear,240,2013-02-06 16:51:00
12:51 PM,36.0,17.1,46,29.93,10.0,Variable,5.8,-,N/A,,Scattered Clouds,0,2013-02-06 17:51:00
1:51 PM,36.0,16.0,44,29.94,10.0,WNW,15.0,23.0,N/A,,Overcast,300,2013-02-06 18:51:00
2:51 PM,36.0,12.9,39,29.96,10.0,WNW,9.2,17.3,0.00,,Overcast,290,2013-02-06 19:51:00
3:51 PM,35.1,12.0,39,29.98,10.0,WNW,6.9,18.4,N/A,,Scattered Clouds,300,2013-02-06 20:51:00
4:51 PM,33.1,12.0,42,30.02,10.0,WNW,8.1,-,N/A,,Scattered Clouds,290,2013-02-06 21:51:00
5:51 PM,30.9,10.9,43,30.06,10.0,NW,8.1,-,N/A,,Clear,310,2013-02-06 22:51:00
6:51 PM,28.9,14.0,54,30.11,10.0,WNW,10.4,-,N/A,,Clear,300,2013-02-06 23:51:00
7:51 PM,27.0,10.0,49,30.14,10.0,NW,15.0,24.2,N/A,,Clear,310,2013-02-07 00:51:00
8:51 PM,25.0,6.1,45,30.18,10.0,WNW,10.4,21.9,N/A,,Clear,290,2013-02-07 01:51:00
9:51 PM,23.0,-0.0,37,30.21,10.0,Variable,5.8,-,N/A,,Clear,0,2013-02-07 02:51:00
10:51 PM,21.0,-9.9,25,30.25,10.0,WNW,13.8,27.6,N/A,,Clear,300,2013-02-07 03:51:00
11:51 PM,19.0,-9.9,27,30.28,10.0,WNW,15.0,21.9,N/A,,Clear,300,2013-02-07 04:51:00